Terminal Aerodrome Forecast
Issued by NWS Dodge City, KS

Home | Current Version | Previous Version | Text Only | Print | Product List | Glossary On
Versions: 1 2 3 4 5 6 7 8 9 10 11 12 13 14 15 16 17 18 19 20 21 22 23 24 25 26 27 28 29 30 31 32 33 34 35 36
000
FTUS43 KDDC 290908 AAB
TAFDDC
TAF AMD
KDDC 290908Z 2909/3006 06013G24KT P6SM -TSRA OVC008CB
      TEMPO 2909/2910 3SM TSRA OVC006CB
     FM291200 07013KT 5SM SHRA OVC003
     FM292300 03013KT 3SM SHRA OVC003=

USA.gov is the U.S. government's official web portal to all federal, state and local government web resources and services.